Location: Home
(42.5358°N, 72.7383°W)
Time: 09:04:25
(UTC-05:00)

Vanguard 2 - Pass Details

Date: 30 November 2021
Orbit: 553 x 2936 km, 32.9° (Epoch: 21 January)

Event Time Altitude Azimuth Distance (km) Brightness Sun altitude
Rises 16:03:47 0° 254° (WSW) 3,553 12.8 1.6°
Reaches altitude 10° 16:06:01 10° 248° (WSW) 2,836 12.6 1.2°
Maximum altitude 16:12:41 45° 177° (S) 1,862 9.8 0.2°
Drops below altitude 10° 16:23:33 10° 110° (ESE) 4,571 11.1 -1.6°
Sets 16:28:12 0° 106° (ESE) 5,944 11.6 -2.3°
